Zurück zum Katalog

ONEWEB-0658

AktivKommunikationPO
NORAD 55819·PAYLOAD·🇬🇧 United Kingdom

Gestartet Mar 9, 2023 von Cape Canaveral Space Force Station

Loading…

Nächste Überflüge (nächste 24 Stunden)

TLE

AktuellSource: CelesTrak SupGP

Epoche: Sep 14, 2026, 16:58 UTC

1 55819C 23029Z   26257.70709907 -.00001688  00000+0 -42211-2 0  2578
2 55819  87.9118 287.1231 0001780  82.3673  28.8450 13.19729147    15

Verfolge ONEWEB-0658 in Echtzeit mit AllMySat

Download on the App Store